AirNav   Duncan Aviation - Near you to keep you flying
 
 1490 users online  

MO21 St Joseph Medical Center Heliport
Kansas City, Missouri, USA

GOING TO KANSAS CITY?


FAA INFORMATION EFFECTIVE 07 OCTOBER 2021

Location

FAA Identifier: MO21
Lat/Long: 38-56-10.8000N 094-36-18.4600W
38-56.180000N 094-36.307667W
38.9363333,-94.6051278
(estimated)
Elevation: 900 ft. / 274 m (estimated)
Variation: 05E (1985)
Time zone: UTC -5 (UTC -6 during Standard Time)
Zip code: 64114

Heliport Operations

Heliport use: Private use, MEDICAL.
Activation date: 11/1988
Control tower: no
ARTCC: KANSAS CITY CENTER
FSS: COLUMBIA FLIGHT SERVICE STATION
Attendance: CONTINUOUS
Wind indicator: lighted
Segmented circle: no
Lights: SS-SR

Heliport Communications

UNICOM: 123.05
WX ASOS at OJC (8 nm SW): PHONE 913-780-6969
WX ASOS at LXT (11 nm E): 124.175 (816-347-9807)
WX ASOS at MKC (11 nm N): PHONE 816-329-2843
WX ASOS at IXD (15 nm SW): 135.325 (913-780-6987)

Nearby radio navigation aids

VOR radial/distance  VOR name  Freq  Var
MCIr159/21.8KANSAS CITY VORTAC113.2505E
ANXr240/24.2NAPOLEON VORTAC114.0007E

 
NDB name  Hdg/Dist  Freq  Var  ID
HERBB025/12.642004EPK .--. -.-

Heliport Services

Runway Information

Helipad H1

Dimensions: 45 x 45 ft. / 14 x 14 m
Surface: asphalt
Runway edge lights: PERI
Latitude: 38-56.180000N
Longitude: 094-36.307667W
Elevation: 900.0 ft.
Traffic pattern: leftleft

Heliport Ownership and Management from official FAA records

Ownership: Privately-owned
Owner: ST JOSEPH HEALTH CENTER
1000 CARONDELET DR
KANSAS CITY, MO 64114
Phone 816-942-4400
Manager: RYAN SLOAN
ST JOSEPH HEALTH CENTER, 1000 CARONDELET DR
KANSAS CITY, MO 64114
Phone (816) 943-4713

Additional Remarks

SEE AIRSPACE LTR DATED 3/3/98.
FOR CD CTC KANSAS CITY APCH AT 816-329-2710.

Instrument Procedures

There are no published instrument procedures at MO21.

Some nearby airports with instrument procedures:

KOJC - Johnson County Executive Airport (8 nm SW)
KLXT - Lee's Summit Municipal Airport (11 nm E)
KMKC - Charles B Wheeler Downtown Airport (11 nm N)
KIXD - New Century AirCenter Airport (15 nm SW)
3GV - East Kansas City Airport (19 nm E)
 
Loc | Ops | Rwys | IFR | FBO | Links
Com | Nav | Svcs | Stats | Notes
Area around MO21 (St Joseph Medical Center Heliport)
 
Road maps at: MapQuest Bing Google
 
Aerial photo
No photo
 
Sectional chart

 
Airport distance calculator
Flying to St Joseph Medical Center Heliport? Find the distance to fly.

From to MO21

Sunrise and sunset
Times for 21-Oct-2021
 Local
(UTC-5)
 Zulu
(UTC)
Morning civil twilight07:0812:08
Sunrise07:3512:35
Sunset18:3123:31
Evening civil twilight18:5823:58

Current date and time
Zulu (UTC)  21-Oct-2021 14:16:30
Local (UTC-5)  21-Oct-2021 09:16:30
 
METAR
KOJC 
8nm SW 
211353Z 30010G16KT 10SM CLR 07/03 A3017 RMK AO2 SLP215 T00720028
KMKC 
11nm N 
211354Z 29009G17KT 10SM CLR 08/03 A3016 RMK AO2 SLP214 T00780033
KLXT 
11nm E 
211353Z AUTO 29006KT 10SM CLR 07/03 A3016 RMK AO2 SLP215 T00720033
KIXD 
15nm SW 
211353Z 30010KT 10SM CLR 07/02 A3018 RMK AO2 SLP220 T00670022
TAF
KMKC 
11nm N 
211120Z 2112/2212 30012G20KT P6SM OVC025 FM211900 30012KT P6SM SCT200 FM220000 VRB04KT P6SM SKC
KIXD 
15nm SW 
211120Z 2112/2212 30012G20KT P6SM OVC025 FM211900 30012KT P6SM SCT200 FM220000 VRB04KT P6SM SKC
NOTAMs
Click for the latest NOTAMs
NOTAMs are issued by the DoD/FAA and will open in a separate window not controlled by AirNav.

 

 
 

Would you like to see your business listed on this page?

 If your business provides an interesting product or service to pilots, flight crews, aircraft, or users of the St Joseph Medical Center Heliport, you should consider listing it here.  To start the listing process, click on the button below
 
Add a business
 

Other Pages about St Joseph Medical Center Heliport

Update a link
 
Copyright © AirNav, LLC. All rights reserved. Privacy Policy  Contact